2018 Dexter/Ann Arbor Run

Ann Arbor
2018-06-03
Starts on: 2018-06-03
Where: Ann Arbor
Categories: Half Marathon 10K Run/Walk 5K Run/Walk Half Master's Championship Kids Race
Description: The beautiful shaded backwoods of the Huron River provide the setting for the annual Dexter to Ann Arbor Runs. Choose from a 5K, a 10K, or the classic Half-Marathon, which takes runners on a scenic, gently rolling 13.1 mile course starting in the picturesque town of Dexter and heading east along Huron River Drive to the exciting finish in beautiful downtown Ann Arbor. The 5K and 10K events start and finish in downtown Ann Arbor, a city selected this year by Road Runners Club of America as the top Runner Friendly Community in the U.S.
Female 35-39 Half Marathon
name bib rank time pace hometown
Ariel Raupagh 1523 1 01:30:17 06:54 Ann Arbor, MI
Samantha Kempner 923 2 01:35:23 07:17 Ann Arbor, MI
Sarah Meinhart 1237 3 01:36:35 07:23 Dexter, MI
Erica Solway 1769 4 01:37:13 07:26 Ann Arbor, MI
Erica Crawford 348 5 01:38:34 07:32 Linden, MI
Melissa Kennedy 2168 6 01:39:19 07:35 Ann Arbor, MI
Candice Carbajal 254 7 01:40:31 07:41 Ann Arbor, MI
Caroline Morris 1307 8 01:41:10 07:44 Franklin, MI
Erin Brede 191 9 01:44:13 07:58 Grand Rapids, MI
Allison Fox 559 10 01:44:13 07:58 Dexter, MI
Alyson Thompson 1879 11 01:44:42 08:00 Ann Arbor, MI
Courtney Kistler 953 12 01:45:08 08:02 Ann Arbor, MI
Jamie Crane 346 13 01:46:11 08:07 Flat Rock, MI
Jen Crutchfield 358 14 01:46:13 08:07 Waterford, MI
Jennifer Dsouza 459 15 01:47:45 08:14 Ann Arbor, MI
Sonia Rupcic 1605 16 01:48:43 08:18 Ann Arbor, MI
Kate Wright 2064 17 01:48:49 08:19 Ann Arbor, MI
Lisa Kim 946 18 01:49:17 08:21 South Lyon, MI
Sarah Tayter 1861 19 01:49:28 08:22 Ann Arbor, MI
Clare Rauch 1522 20 01:49:43 08:23 Ann Arbor, MI
Tonya Stankov 1791 21 01:50:11 08:25 Milford, MI
Maggie Needham 1348 22 01:50:53 08:28 Harlem, GA
Diane Erickson 499 23 01:51:37 08:32 Ann Arbor, MI
Sarah Jarboe 852 24 01:52:44 08:37 Dexter, MI
Alaina Robinson 1586 25 01:52:55 08:38 South Lyon, MI
Shelleyann Keelean 913 26 01:54:00 08:43 Grosse Pointe, MI
Sarah Dominick 439 27 01:54:23 08:44 Ann Arbor, MI
Sarah Kennedy 2256 28 01:55:07 08:48 Ann Arbor, MI
Amy Brink 198 29 01:55:24 08:49 Ann Arbor, MI
Billie-Nicole Howie 800 30 01:55:33 08:50 Wolverine Lake, MI
Brenna Karbel 901 31 01:56:35 08:54 Commerce Township, MI
Karen Nicholson-Muth 1361 32 01:56:54 08:56 Ann Arbor, MI
Erin Ray 1524 33 01:57:14 08:57 Northville, MI
Lauren Brodie 203 34 01:57:47 09:00 Canton, MI
Abigail Devine 418 35 01:58:01 09:01 Ann Arbor, MI
Jill Bell 121 36 01:58:19 09:02 Dexter, MI
Denise Richard 1557 37 01:58:19 09:02 Grass Lake, MI
Bethany Christoff 298 38 01:58:21 09:03 Ann Arbor, MI
Smriti Mohan 1283 39 01:58:56 09:05 Ann Arbor, MI
Erin Ferrell 524 40 01:59:12 09:06 Dexter, MI
Kari Beer 114 41 01:59:23 09:07 Philadelphia, PA
Grace Vandervliet 1927 42 01:59:31 09:08 Ann Arbor, MI
Alison Richardson 1560 43 01:59:36 09:08 Ann Arbor, MI
Erika Jensen 860 44 01:59:36 09:08 Ann Arbor, MI
Sara Jones 883 45 02:00:08 09:11 Perrysburg, OH
Melanie Szawara 1841 46 02:01:23 09:16 Dexter, MI
Sara Lupkas 1128 47 02:02:07 09:20 Ann Arbor, MI
Angela Harris 708 48 02:02:45 09:23 New Boston, MI
Whitney Okeefe 1388 49 02:02:45 09:23 Ann Arbor, MI
Bethany Betzler 145 50 02:03:41 09:27 Leland, MI
Katherine Fontana 552 51 02:04:12 09:29 Detroit, MI
Abby Holland 787 52 02:04:12 09:29 Dexter, MI
Jessica Dewitt 422 53 02:04:14 09:29 Livonia, MI
Danielle Mulka 1322 54 02:04:14 09:29 Walled Lake, MI
Hac Siess 1727 55 02:04:30 09:31 Clinton Township, MI
Jessica Gronemeyer 664 56 02:05:18 09:34 Ann Arbor, MI
Amanda Cline 311 57 02:05:42 09:36 Dearborn Heights, MI
Simrun Kochhar 973 58 02:06:22 09:39 Ann Arbor, MI
Jennifer Wetherald 2269 59 02:06:36 09:40 Wyandotte, MI
Jamie Konwerski 987 60 02:06:42 09:41 Jackson, MI
Vanessa Kelchner 918 61 02:07:33 09:45 Ann Arbor, MI
Christine Darragh 385 62 02:09:05 09:52 Ann Arbor, MI
Angela Tucker 1908 63 02:09:18 09:53 Wixom, MI
Carrie Parker 1427 64 02:09:28 09:53 Ann Arbor, MI
Nicole Porter 1492 65 02:10:04 09:56 Ypsilanti, MI
Casey Gill 619 66 02:10:07 09:56 Dayton, OH
Meiqin Lu 1112 67 02:10:40 09:59 Saline, MI
Jenny Sanford 1631 68 02:10:53 10:00 Springport, MI
Smitha Vikram 1947 69 02:10:59 10:00 Canton, MI
Amy Cova 335 70 02:12:34 10:08 Ferndale, MI
Pamela Smaby 1746 71 02:12:43 10:08 Dexter, MI
Lauren Flynn 2254 72 02:13:26 10:12 St. Petersburg, FL
Sangthong Tanielian 1851 73 02:13:52 10:14 Milford, MI
Jessica Baitinger 78 74 02:15:55 10:23 Brighton, MI
Mackenzie Schilling 1648 75 02:16:20 10:25 Grand Rapids, MI
Nicolette Franck 565 76 02:16:20 10:25 Farmington, MI
Stacia Potempa 1496 77 02:16:29 10:26 Ann Arbor, MI
Jessica Wolf 2048 78 02:17:00 10:28 Walled Lake, MI
Carrie Deierlein 400 79 02:17:11 10:29 Ann Arbor, MI
Katherine First 534 80 02:17:14 10:29 Mount Pleasant, MI
Pamela Stom 1815 81 02:17:23 10:30 Ann Arbor, MI
Gloria Jen 856 82 02:17:58 10:32 Ann Arbor, MI
Karen Peach 1446 83 02:17:58 10:32 Ann Arbor, MI
Michelle Harrison 715 84 02:18:00 10:33 Wheaton, IL
Staci Smith 1759 85 02:18:35 10:35 Lansing, MI
Julie Anderson 43 86 02:19:46 10:41 Whitmore Lake, MI
Melissa Millikin 1276 87 02:20:45 10:45 Ann Arbor, MI
Angie Marquardt 1161 88 02:21:05 10:47 Hamilton, IN
Katy Fritts 569 89 02:21:14 10:47 Ann Arbor, MI
Kristy Hegner 740 90 02:21:53 10:50 Saint Clair Shores, MI
Ana Sakuta 1618 91 02:22:39 10:54 Northville, MI
Laura Feuerbacher 525 92 02:24:06 11:00 Manchester, MI
Ellen Supers 1832 93 02:24:06 11:01 Manchester, MI
Nicole Parm 1430 94 02:24:09 11:01 Ann Arbor, MI
Heather Durian 2120 95 02:24:22 11:02 Mason, MI
Lauren Fragomeni 562 96 02:26:10 11:10 Birmingham, MI
Kristina Sitarski 1737 97 02:26:10 11:10 Ann Arbor, MI
Rebecca Schwartz 1670 98 02:30:34 11:30 Philadelphia, PA
Melissa Walcott 1963 99 02:33:43 11:45 Saline, MI
Lauren Lantis 1040 100 02:33:52 11:45 Chelsea, MI

Next Page